Location: Winthrop
(48.4780°N, 120.1850°W)
Time: 19:58:28
(UTC-08:00)

Envisat - Pass Details

Date: 30 November 2022
Orbit: 763 x 765 km, 98.2° (Epoch: 05 February)

Event Time Altitude Azimuth Distance (km) Brightness Sun altitude
Rises 04:51:54 0° 10° (N) 3,245 6.3 -25.4°
Reaches altitude 10° 04:54:15 10° 6° (N) 2,314 5.5 -25.1°
Enters shadow 04:57:14 34° 349° (N) 1,255 3.9 -24.6°
